Tracking 30262 objects as of 17-Feb-2025
HD Live streaming from Space Station
objects crossing your sky now

STARLINK-4342

Track STARLINK-4342 now!
10-day predictions
STARLINK-4342 is classified as:


NORAD ID: 53070
Int'l Code: 2022-077AD
Perigee: 568.9 km
Apogee: 571.3 km
Inclination: 97.7 °
Period: 95.9 minutes
Semi major axis: 6941 km
RCS: Unknown
Launch date: July 11, 2022
Source: United States (US)
Launch site: AIR FORCE WESTERN TEST RANGE (AFWTR)
Your satellite tracking list
Your tracking list is empty




NASA's NSSDC Master Catalog

Two Line Element Set (TLE):
1 53070U 22077AD  25048.25003472 -.00010695  00000-0 -82930-3 0  9993
2 53070  97.6534 231.5885 0001729  88.5456  54.2298 15.01262456143660
Source of the keplerian elements: AFSPC